Temp
24 25 25 26 26 25 25 26 27 26 26 26 26 26 26 26 26 25 25 25 25 24 24 24 25 25 25 25 24 24 24 23 21 23 24 26 26 26 26 26 26 26 26
24 24 24 25 25 25 25 26 27 26 26 26 27 26 26 26 26 26 25 25 25 25 25 25 25 25 25 25 25 25 24 24 22 22 24 25 26 26 26 26 26 26 26
24 24 24 25 25 25 25 26 26 26 26 26 26 26 26 26 26 26 26 25 25 25 25 25 25 25 25 25 25 25 25 25 24 23 23 24 25 25 25 25 26 26 26
24 23 24 24 24 24 25 25 26 26 26 26 26 27 27 27 27 26 26 25 25 25 25 25 25 25 25 25 25 25 25 25 25 24 23 23 24 25 24 24 25 25 24
24 23 24 24 24 24 24 25 26 26 26 26 26 26 26 27 27 26 26 25 25 25 25 25 25 25 25 25 25 25 25 24 24 24 23 23 23 23 23 24 23 24 25
24 23 24 24 24 24 24 24 25 26 26 25 25 26 26 26 26 26 26 25 25 25 25 25 25 25 25 25 25 25 25 25 24 23 23 22 23 23 24 23 23 22 21
24 24 24 24 24 24 24 24 24 24 25 25 25 25 25 25 26 26 25 25 25 25 25 24 24 24 24 24 25 25 25 25 25 25 24 23 23 24 24 23 21 21 21
24 23 23 23 23 23 23 24 24 24 24 25 25 25 25 25 25 25 25 25 25 24 24 24 24 24 24 24 23 23 23 24 24 24 24 24 23 23 23 22 21 21 22
23 22 23 23 23 23 21 21 21 22 25 25 22 21 22 22 24 25 24 24 24 23 23 24 24 23 24 24 23 23 23 23 23 23 22 22 23 23 22 21 19 19 19
20 20 21 21 21 21 22 22 23 22 20 20 19 19 19 19 20 20 20 20 21 22 23 23 23 21 21 22 21 22 22 23 23 23 24 24 24 23 22 21 21 20 19
18 20 20 20 20 21 22 22 20 20 19 19 19 20 20 19 19 19 20 21 21 21 21 22 20 20 19 19 18 19 19 21 22 23 22 23 22 22 21 21 21 20 20
19 20 21 21 20 21 21 21 19 19 19 18 17 18 19 18 21 21 21 20 20 19 20 20 20 20 19 17 17 18 19 18 19 19 21 22 21 21 21 21 21 21 20
19 19 19 19 19 19 19 19 19 19 17 17 17 16 17 17 17 18 20 19 18 18 18 18 18 21 20 20 20 19 20 20 19 19 19 20 20 20 21 20 20 20 20
19 19 18 19 19 19 19 19 19 19 17 16 16 16 17 17 18 19 18 18 18 18 17 17 17 18 19 18 18 18 18 17 17 17 18 18 19 19 19 19 20 19 19
19 18 19 19 19 19 18 18 19 18 18 18 18 18 18 18 18 18 18 18 18 18 17 17 17 17 17 17 17 16 16 16 17 17 17 16 16 16 17 17 18 19 19
18 19 18 18 18 19 19 18 19 19 19 19 18 18 18 18 18 19 18 18 17 17 16 16 16 15 14 14 14 14 14 14 14 14 14 14 14 15 15 16 17 18 18
17 18 18 18 18 18 18 19 18 18 18 18 18 18 18 18 17 17 17 17 17 17 16 15 14 14 13 13 13 13 13 13 13 14 14 13 14 14 14 14 15 16 17
17 17 17 17 17 17 17 17 17 18 18 19 18 18 18 18 18 18 17 17 17 17 16 16 15 14 13 13 12 12 12 13 14 13 13 13 13 13 13 13 14 15 15
15 15 15 15 16 16 16 16 17 17 17 18 19 19 18 18 18 18 18 17 17 17 16 16 15 14 13 12 12 12 12 12 12 12 12 12 12 12 12 13 13 14 15
13 13 14 14 14 15 15 15 16 16 16 16 17 18 19 18 18 18 19 19 18 17 17 16 15 15 14 14 13 12 12 13 13 13 13 13 12 11 11 11 12 12 13
12 12 13 13 13 13 14 14 14 15 15 16 17 18 17 18 19 18 18 18 19 17 17 17 16 16 15 15 14 14 13 14 13 13 13 13 12 12 11 11 11 11 12
11 11 11 11 11 12 12 12 13 14 14 15 16 17 17 18 18 18 18 18 19 18 17 17 17 16 16 16 15 15 14 14 14 14 13 13 12 12 11 11 11 11 11
11 11 11 10 10 10 11 12 12 12 13 14 14 15 15 16 17 17 17 17 17 18 18 17 17 17 17 16 16 15 15 14 14 14 14 13 13 12 12 12 11 11 11
12 11 11 11 10 10 10 10 11 12 12 13 13 14 15 15 14 15 15 16 16 17 17 17 17 17 17 16 16 16 15 15 14 14 14 14 13 12 12 12 12 12 12
13 13 13 12 11 11 11 11 11 11 12 12 13 13 14 15 15 15 15 15 15 16 16 16 16 17 16 16 16 16 16 15 14 14 13 13 13 13 12 12 12 12 12
13 13 13 13 13 13 12 11 11 12 12 12 13 13 13 13 14 14 16 16 16 15 15 16 16 15 15 15 16 16 15 15 15 14 13 13 13 13 13 12 12 12 12
Height
784 788 793 798 804 809 812 815 817 818 820 825 827 829 830 832 835 837 838 839 839 840 840 839 839 840 839 839 839 839 838 839 837 831 829 826 823 821 819 816 813 810 806
777 783 788 793 799 804 808 811 813 815 818 821 824 826 826 828 830 832 833 834 835 835 835 836 835 836 835 835 835 835 834 834 832 829 824 821 819 817 814 811 808 805 800
773 778 783 786 792 796 801 805 809 812 814 817 820 821 822 823 826 828 830 831 831 832 832 832 831 832 831 830 829 828 827 826 825 824 820 818 813 811 808 806 802 798 794
766 772 777 782 786 790 795 799 804 808 811 813 815 817 818 819 822 825 827 827 827 827 828 828 828 827 826 826 825 824 823 821 820 819 816 814 810 806 804 802 796 794 788
761 767 771 777 783 788 791 795 799 801 805 808 811 813 815 816 817 819 821 822 822 822 823 822 822 822 822 821 820 818 818 816 814 812 810 807 804 802 800 798 795 791 784
755 760 766 772 776 781 785 789 793 796 798 801 804 808 810 810 812 813 815 817 818 817 817 817 817 816 815 814 813 812 811 810 808 806 804 802 799 798 795 795 794 790 783
751 755 762 767 771 775 779 783 786 790 793 794 797 801 803 806 807 809 812 812 812 813 812 811 810 809 809 807 806 805 803 802 801 800 796 795 793 793 791 789 791 786 783
748 754 756 762 766 770 775 777 780 783 787 790 792 793 795 797 801 804 805 805 805 805 804 805 805 803 803 802 800 798 796 795 793 793 791 787 787 786 786 786 784 782 780
747 751 758 759 762 768 773 776 779 781 784 786 787 789 791 793 795 799 801 802 801 799 799 799 798 796 794 794 792 790 787 787 786 785 783 782 779 779 779 779 777 777 774
746 749 752 756 760 765 769 773 774 780 782 784 784 785 786 788 789 793 797 799 801 799 795 792 792 790 790 789 787 786 782 779 779 777 775 772 770 769 771 771 770 770 768
754 751 751 755 756 761 767 768 770 776 783 785 779 785 782 783 786 789 788 791 795 795 792 787 785 783 784 786 786 784 781 778 774 770 768 765 765 762 763 763 763 763 763
746 761 749 750 759 753 757 768 770 760 777 775 771 763 769 769 767 776 780 786 791 790 788 783 779 776 778 780 782 781 778 773 769 766 761 760 760 760 760 759 759 759 758
755 749 748 757 754 751 760 760 756 764 767 777 775 775 778 777 774 766 770 785 789 786 782 779 776 770 774 775 778 778 772 767 764 761 758 755 762 758 756 758 756 756 755
752 753 758 760 753 755 756 758 763 766 771 777 777 779 778 780 774 772 777 779 779 778 778 776 772 769 772 772 772 775 774 770 765 760 755 755 756 757 758 757 754 754 754
758 758 759 756 758 758 760 761 765 767 770 772 774 774 776 775 774 774 775 778 775 774 773 773 772 769 771 771 771 772 773 768 762 760 758 757 757 758 757 755 754 753 752
762 763 763 763 764 762 762 764 767 766 768 769 771 772 772 773 773 774 774 772 775 770 770 773 773 771 772 773 772 770 772 768 765 764 764 761 760 758 755 754 754 752 751
769 769 769 771 768 766 768 769 770 771 770 772 770 773 773 773 773 773 772 772 772 773 772 772 773 774 774 774 773 773 771 768 769 766 762 761 759 758 756 755 754 752 750
772 774 774 772 770 770 771 772 772 769 768 769 771 770 769 769 770 770 770 771 771 771 772 772 771 773 774 774 775 774 770 769 766 766 765 762 760 759 757 757 755 754 751
776 776 777 775 773 774 775 775 771 766 767 770 768 767 768 768 769 770 770 770 771 771 772 772 773 774 775 774 773 772 769 768 768 766 764 763 762 760 758 756 754 753 750
777 779 777 776 777 776 776 776 776 775 772 769 767 767 766 767 767 768 767 768 768 768 770 771 772 773 773 772 770 769 769 767 767 766 763 761 760 759 759 757 754 751 749
781 781 782 780 775 774 773 772 774 775 771 767 764 764 765 766 764 764 765 765 765 766 768 769 769 770 770 769 768 768 767 767 767 765 763 760 760 758 757 756 754 751 748
782 782 783 783 782 782 781 780 778 774 772 770 766 763 763 762 760 760 760 761 762 762 764 765 766 766 766 765 765 765 766 766 765 764 761 760 759 757 755 754 752 749 747
780 779 781 778 776 774 773 772 771 770 769 767 765 761 757 756 756 756 758 759 759 759 759 760 762 761 761 761 762 763 763 763 763 762 760 759 757 756 755 753 751 749 747
781 780 777 773 772 770 770 769 768 767 765 765 763 761 761 760 758 754 754 753 753 754 756 756 757 758 758 758 758 759 759 760 760 760 759 758 756 755 754 753 751 749 746
777 774 772 770 769 769 768 767 766 767 765 763 761 760 760 761 758 757 755 749 750 750 747 750 754 754 753 754 754 754 755 756 756 757 757 756 754 754 753 751 749 747 743
775 773 772 770 769 768 767 766 766 765 763 760 758 758 757 757 754 756 752 749 744 749 747 745 747 749 750 750 749 750 750 751 752 753 754 753 753 751 750 748 747 745 743
Wind_Speed
40 43 40 41 36 27 28 29 28 30 36 33 31 31 33 29 26 24 22 20 20 17 16 15 16 16 17 16 15 14 16 14 11 21 26 28 30 29 29 27 27 30 31
39 39 38 40 40 32 31 28 25 26 30 32 30 32 34 33 28 28 25 24 23 22 20 18 19 18 19 18 18 18 19 20 18 20 28 31 32 33 33 31 33 33 34
35 37 36 40 40 39 36 33 29 24 25 27 25 26 28 28 30 29 27 25 25 25 23 23 22 20 21 19 19 19 19 21 23 24 26 30 33 33 32 35 35 36 39
35 34 34 34 36 38 40 37 35 31 27 25 27 26 25 25 28 29 27 27 26 25 25 25 25 24 24 23 23 23 23 22 21 22 24 27 30 32 33 29 33 35 38
32 32 34 33 32 35 35 40 38 37 34 31 28 27 28 27 30 31 30 30 29 27 26 25 25 26 26 25 25 26 25 25 25 25 22 23 24 23 23 28 28 33 39
32 33 32 33 34 35 35 38 40 41 39 36 33 29 30 31 33 32 31 30 29 29 29 27 27 27 27 26 25 25 25 24 25 23 22 18 23 24 28 27 25 23 10
30 30 29 31 31 32 33 34 36 38 39 39 38 34 32 33 33 32 29 29 31 29 27 26 27 28 28 26 25 25 25 24 24 25 28 28 30 29 30 29 20 24 20
24 23 24 26 28 26 29 32 34 34 35 36 36 36 36 39 35 34 32 31 29 29 26 25 27 29 29 27 23 23 24 23 23 22 29 30 31 34 32 30 20 24 21
14 15 14 18 18 16 12 10 13 22 30 32 20 19 22 24 29 31 29 28 28 26 22 24 29 31 30 30 30 26 23 23 17 16 17 23 25 25 23 24 19 14 8
20 17 13 11 6 8 5 2 14 19 16 8 7 6 7 6 4 4 7 15 23 22 22 24 25 25 27 27 26 23 24 25 16 19 19 22 25 26 23 19 16 17 10
10 4 1 7 8 9 13 13 5 4 1 10 19 10 7 1 1 2 3 14 26 25 20 17 16 16 15 15 17 17 18 17 19 18 18 21 26 20 17 14 14 14 14
10 12 3 18 17 13 9 13 9 3 10 10 11 10 20 23 21 14 16 19 21 21 18 12 14 13 16 18 15 15 23 25 22 16 14 17 19 18 15 13 10 7 8
14 10 15 16 8 8 14 7 5 9 17 19 17 22 27 17 14 14 14 22 24 22 18 18 18 10 17 13 19 25 18 16 15 9 10 16 13 15 15 13 12 11 10
16 12 11 12 12 9 6 5 6 7 16 15 12 14 17 21 16 15 16 16 15 15 16 15 13 11 12 11 7 7 11 13 10 14 11 10 14 15 15 14 13 10 8
22 15 11 13 15 16 15 12 9 7 9 16 19 20 17 14 16 13 10 10 9 7 7 6 3 3 4 7 8 10 11 13 16 17 16 17 18 16 17 15 14 13 10
22 23 18 11 12 14 14 15 10 10 6 5 6 7 10 10 9 7 5 1 4 5 5 5 6 8 9 11 13 13 14 17 15 14 14 14 15 17 18 17 14 14 14
22 20 16 17 12 9 8 5 4 5 5 4 7 7 8 9 7 6 4 2 4 6 5 5 5 7 8 8 10 10 12 13 14 14 13 15 15 17 18 18 17 17 16
20 20 17 14 16 15 12 8 6 3 1 3 6 5 4 4 2 1 1 1 3 4 3 4 5 6 5 6 7 9 9 10 12 14 15 15 15 15 16 18 18 16 18
18 17 16 17 17 17 16 16 15 11 4 3 2 4 7 6 5 4 5 4 3 2 1 2 3 4 6 5 4 6 7 9 11 11 12 14 15 16 16 15 18 19 19
14 13 13 13 13 14 15 16 17 16 14 6 6 5 6 9 11 10 7 6 7 6 3 3 1 1 3 5 6 6 6 7 10 11 12 14 14 14 16 18 18 18 19
12 10 10 9 11 13 14 16 15 14 15 18 12 10 10 13 14 14 11 9 9 11 9 6 4 2 1 2 4 5 5 8 9 11 11 12 13 13 14 15 18 19 18
11 11 11 11 9 10 11 11 11 11 11 14 18 12 9 9 14 16 15 13 11 13 14 11 9 6 3 1 1 1 2 4 7 10 12 13 14 13 13 15 18 20 20
14 12 11 11 11 11 12 11 11 12 14 14 16 20 10 10 10 15 18 17 14 14 18 17 14 11 8 6 5 4 2 3 4 7 10 11 12 12 13 14 15 18 21
13 12 13 14 15 13 12 14 13 12 14 16 17 15 15 17 15 5 3 6 9 12 19 23 21 19 16 13 11 9 8 4 4 4 6 8 10 10 12 15 15 16 17
18 19 20 18 16 14 13 13 14 14 15 15 17 17 18 17 15 12 12 16 15 9 6 17 23 24 22 20 18 16 13 11 9 7 7 7 8 8 11 13 15 16 16
18 18 19 20 21 20 19 17 14 13 15 17 19 20 18 19 17 18 17 18 11 20 16 9 12 18 24 25 24 24 23 19 16 13 11 9 8 8 10 13 14 15 15
Wind_Direction
208 212 214 217 219 223 221 223 232 235 233 235 241 244 238 239 238 239 245 250 253 259 265 274 277 282 284 289 287 289 274 269 256 294 301 313 314 319 324 325 326 328 327
207 210 212 214 218 219 221 223 232 237 237 238 239 248 254 243 235 235 245 250 250 253 258 265 273 281 284 287 290 291 288 286 277 277 300 305 308 315 317 320 324 328 326
204 208 211 213 216 218 221 223 225 230 228 230 235 242 246 239 234 238 247 253 252 256 262 266 270 275 278 280 281 285 286 291 288 285 290 301 307 313 316 320 323 326 327
200 205 210 214 214 218 223 224 225 224 223 223 229 237 240 232 232 238 250 251 253 257 261 265 270 270 272 275 278 283 284 288 291 289 295 296 301 306 309 310 315 320 321
198 202 211 214 217 223 223 228 228 229 229 229 232 235 236 232 231 238 243 247 251 255 259 264 267 273 275 276 278 283 283 284 284 287 282 284 288 294 298 304 303 316 322
197 204 209 213 217 223 226 232 234 234 234 236 234 237 240 234 235 236 239 249 254 256 262 265 269 273 275 277 279 279 282 285 285 280 278 274 283 289 296 299 302 306 313
202 205 208 213 215 220 225 232 237 239 240 241 244 241 240 242 241 241 248 254 261 263 267 270 272 273 275 277 277 281 282 283 285 287 284 279 285 290 295 296 297 300 281
203 207 206 212 219 221 226 230 237 241 245 245 246 246 245 245 247 250 251 254 255 260 261 269 278 281 280 280 283 282 280 282 287 291 290 292 294 298 296 294 287 280 283
179 177 201 207 211 213 218 239 255 250 254 252 246 244 248 251 251 258 264 261 259 263 273 280 280 279 278 275 271 266 268 274 282 281 283 289 299 299 298 293 277 246 257
109 110 120 93 161 171 178 333 344 331 282 242 129 103 108 94 62 6 342 325 296 283 285 289 293 288 280 274 268 262 262 267 280 292 298 307 315 309 296 290 285 248 232
33 87 339 270 242 269 281 273 294 346 170 154 106 85 48 203 163 41 28 286 279 287 288 301 314 310 293 284 288 285 276 288 288 292 311 320 321 329 325 301 280 263 244
344 250 227 302 277 247 277 249 198 96 200 176 169 225 255 227 215 210 232 265 270 277 285 296 306 323 319 292 301 307 308 297 287 286 313 327 326 337 334 321 309 293 288
155 103 126 191 173 190 215 233 242 202 178 199 201 206 215 222 210 199 222 251 267 275 280 290 288 281 309 300 303 315 317 311 293 292 340 353 324 346 347 335 318 305 289
79 102 131 152 141 152 142 150 190 202 181 196 203 216 215 214 241 243 245 252 264 276 276 282 301 308 306 319 334 330 329 345 10 13 6 335 330 331 329 340 345 317 273
68 75 100 99 115 120 125 131 163 176 200 206 208 217 226 224 226 232 253 271 271 289 302 309 0 26 353 357 354 350 343 352 360 353 351 349 346 340 333 336 336 314 254
63 64 67 89 99 98 100 104 108 113 119 161 185 192 181 199 206 205 196 185 353 42 65 39 25 30 17 1 359 360 359 3 9 7 4 359 352 350 345 343 338 316 293
52 50 72 84 74 60 71 68 129 133 114 114 132 145 159 154 156 149 140 38 35 41 66 62 47 21 11 10 12 11 11 11 3 10 16 8 3 357 358 351 347 338 326
57 52 56 59 63 63 53 44 56 55 285 256 219 196 161 172 164 111 47 290 354 17 33 34 33 19 14 3 355 1 5 5 8 5 3 6 9 4 0 357 349 339 329
51 50 54 55 61 65 57 49 42 35 17 283 270 228 229 231 249 279 282 282 288 278 259 336 352 349 352 352 347 351 357 356 359 359 4 3 360 359 356 353 348 344 342
42 38 36 39 45 46 44 42 36 32 27 346 304 263 228 224 236 244 247 270 276 260 250 249 265 326 356 8 12 9 16 18 8 6 6 6 3 0 354 351 348 339 334
36 32 30 38 40 31 27 21 14 13 11 9 337 293 283 256 240 232 235 255 266 244 238 240 242 248 347 17 25 26 33 21 13 9 4 3 359 356 358 359 355 352 341
44 50 53 56 43 27 19 11 2 358 359 3 354 322 271 264 260 243 241 252 253 243 236 234 233 238 252 277 360 49 37 13 8 6 3 359 356 358 356 357 359 359 354
37 34 27 21 9 1 357 2 3 7 0 357 7 12 348 288 265 257 254 266 256 246 232 231 236 239 242 247 254 248 268 336 352 358 0 359 358 355 351 348 347 349 354
5 11 13 16 13 6 359 353 346 343 348 349 350 353 16 31 36 44 280 278 276 269 242 234 235 239 241 240 243 245 243 262 283 311 336 353 356 354 348 340 336 338 340
340 343 347 350 350 354 355 347 341 336 333 331 327 328 329 329 331 348 18 41 23 4 291 257 249 247 240 247 249 248 243 240 248 263 287 316 337 337 335 339 341 342 347
318 322 323 325 328 331 330 327 325 328 325 321 320 320 312 309 321 309 313 320 333 323 343 337 317 281 265 257 257 256 251 242 242 242 256 268 290 311 323 325 329 333 340